User: anonymous   Login
Location: Newark
(3.0500°N, 36.0167°E)
Time: 01:47:39
(UTC+00:00)
Language:

Courier 1B - Orbit

View from above orbital plane
View from above orbital plane
View from above satellite
View from above satellite

Ground track
Ground track

The orbit data is extracted from the following two-line orbital elements,

1    58U 60013A   19235.23111266  .00000099  00000-0  22276-4 0  9996
2    58  28.3259 172.6574 0165053 111.9913 249.8256 13.46318966898795
Epoch (UTC): 23 August 2019 05:32:48
Eccentricity: 0.0165053
inclination: 28.3259°
perigee height: 962 km
apogee height: 1209 km
right ascension of ascending node: 172.6574°
argument of perigee: 111.9913°
revolutions per day: 13.46318966
mean anomaly at epoch: 249.8256°
orbit number at epoch: 89879

The dashed part of the orbit path shows where the satellite is in the earth's shadow,  

DLR